EW3148 Weather Reports


time (UTC)temp
C
wind
direction
speed
KPH
gust
KPH
rain 1hr
cm
rain 24hr
cm
rain mn
cm
humidity
%
barometer
mb
20260901101747 25 230 1.6 9.7 0.00 0.00 0.00 86 1012.9
20260901100729 25 194 1.6 8.0 0.00 0.00 0.00 85 1013.0
20260901095744 25 219 3.2 8.0 0.00 0.00 0.00 84 1013.0
20260901093628 25 175 3.2 9.7 0.00 0.00 0.00 83 1013.2
20260901092610 25 194 3.2 8.0 0.00 0.00 0.00 82 1013.2
20260901091557 25 175 3.2 11.3 0.00 0.00 0.00 82 1013.2
20260901090559 25 207 1.6 11.3 0.00 0.00 0.00 82 1013.1
20260901084514 25 210 1.6 8.0 0.00 0.00 0.00 83 1013.0
20260901083536 25 169 1.6 8.0 0.00 0.00 0.00 83 1012.9
20260901082557 26 221 3.2 9.7 0.00 0.00 0.00 82 1013.0
20260901081529 26 191 3.2 9.7 0.00 0.00 0.00 82 1013.0
20260901080536 26 186 3.2 9.7 0.00 0.00 0.00 81 1013.0
20260901075550 26 199 3.2 11.3 0.00 0.00 0.00 81 1013.1
20260901074545 26 167 4.8 11.3 0.00 0.00 0.00 80 1013.0
20260901073553 26 188 3.2 11.3 0.00 0.00 0.00 79 1013.1
20260901072541 26 194 3.2 11.3 0.00 0.00 0.00 78 1013.1
20260901071603 26 200 3.2 9.7 0.00 0.00 0.00 77 1013.2
20260901070617 26 178 3.2 8.0 0.00 0.00 0.00 76 1013.2
20260901065625 27 196 3.2 8.0 0.00 0.00 0.00 75 1013.2
20260901064602 27 161 4.8 12.9 0.00 0.00 0.00 75 1013.1
20260901063547 27 161 4.8 12.9 0.00 0.00 0.00 74 1013.0
20260901062526 27 186 3.2 9.7 0.00 0.00 0.00 73 1012.8
20260901061504 27 169 4.8 12.9 0.00 0.00 0.00 72 1012.7
20260901060506 27 176 4.8 12.9 0.00 0.00 0.00 71 1012.7
20260901055434 27 149 6.4 12.9 0.00 0.00 0.00 70 1012.7
20260901053254 28 206 6.4 14.5 0.00 0.00 0.00 70 1012.6
20260901052236 28 184 6.4 17.7 0.00 0.00 0.00 69 1012.5
20260901051248 28 162 6.4 19.3 0.00 0.00 0.00 69 1012.5
20260901050254 28 226 8.0 19.3 0.00 0.00 0.00 68 1012.5
20260901044111 29 173 6.4 16.1 0.00 0.00 0.00 68 1012.4
20260901043050 29 184 8.0 17.7 0.00 0.00 0.00 67 1012.4
20260901042036 29 139 6.4 17.7 0.00 0.00 0.00 67 1012.4
20260901041021 30 174 6.4 20.9 0.00 0.00 0.00 66 1012.4
20260901040006 30 190 8.0 20.9 0.00 0.00 0.00 66 1012.3
20260901035008 30 172 6.4 19.3 0.00 0.00 0.00 65 1012.3
20260901034026 30 196 8.0 19.3 0.00 0.00 0.00 64 1012.3
20260901033019 30 115 8.0 19.3 0.00 0.00 0.00 62 1012.3
20260901032006 30 128 6.4 16.1 0.00 0.00 0.00 58 1012.2
20260901030947 30 144 6.4 16.1 0.00 0.00 0.00 56 1012.1
20260901025952 30 139 4.8 16.1 0.00 0.00 0.00 52 1011.9
20260901024950 31 146 3.2 14.5 0.00 0.00 0.00 50 1011.8
20260901023932 31 132 0.0 3.2 0.00 0.00 0.00 49 1011.5
20260901022941 31 125 1.6 8.0 0.00 0.00 0.00 48 1011.3
20260901021927 31 139 1.6 9.7 0.00 0.00 0.00 47 1011.3
20260901015743 31 144 0.0 3.2 0.00 0.00 0.00 46 1010.9
20260901014735 32 120 1.6 3.2 0.00 0.00 0.00 46 1010.7
20260901013741 32 116 0.0 3.2 0.00 0.00 0.00 45 1010.7
20260901012724 32 111 0.0 3.2 0.00 0.00 0.00 45 1010.6
20260901011711 33 132 0.0 8.0 0.00 0.00 0.00 44 1010.5
20260901010641 33 109 1.6 8.0 0.00 0.00 0.00 44 1010.4
20260901005622 33 100 1.6 4.8 0.00 0.00 0.00 43 1010.4
20260901004553 34 127 1.6 8.0 0.00 0.00 0.00 43 1010.4
20260901003601 34 170 4.8 9.7 0.00 0.00 0.00 42 1010.4
20260901002608 35 148 4.8 9.7 0.00 0.00 0.00 41 1010.3
20260901001619 35 141 4.8 11.3 0.00 0.00 0.00 41 1010.2
20260901000621 35 155 4.8 16.1 0.00 0.00 0.00 40 1010.2
20260831235607 35 175 3.2 16.1 0.00 0.00 0.00 40 1010.2
20260831234555 36 130 4.8 14.5 0.00 0.00 0.00 39 1010.1
20260831233541 36 94 6.4 14.5 0.00 0.00 0.00 38 1010.2
20260831232535 36 196 3.2 12.9 0.00 0.00 0.00 38 1010.1
20260831231526 36 121 4.8 29.0 0.00 0.00 0.00 39 1010.2
20260831230517 36 192 6.4 29.0 0.00 0.00 0.00 38 1010.3
20260831225515 37 189 6.4 16.1 0.00 0.00 0.00 39 1010.3
20260831224521 37 186 6.4 16.1 0.00 0.00 0.00 38 1010.3
20260831223510 37 153 6.4 16.1 0.00 0.00 0.00 38 1010.3
20260831222517 37 201 4.8 16.1 0.00 0.00 0.00 38 1010.4
20260831221452 37 127 3.2 12.9 0.00 0.00 0.00 37 1010.5
20260831220441 37 98 4.8 14.5 0.00 0.00 0.00 39 1010.6
20260831214315 37 160 6.4 16.1 0.00 0.00 0.00 37 1010.9
20260831213332 37 142 3.2 16.1 0.00 0.00 0.00 38 1010.9
20260831212332 37 200 4.8 17.7 0.00 0.00 0.00 40 1011.0
20260831211304 36 91 6.4 17.7 0.00 0.00 0.00 38 1011.3
20260831210327 37 100 6.4 16.1 0.00 0.00 0.00 39 1011.4
20260831205257 37 203 3.2 19.3 0.00 0.00 0.00 40 1011.6
20260831204240 36 169 4.8 19.3 0.00 0.00 0.00 39 1011.8
20260831203232 36 78 6.4 17.7 0.00 0.00 0.00 39 1011.9
20260831202157 36 216 8.0 22.5 0.00 0.00 0.00 41 1012.2
20260831201143 36 159 6.4 22.5 0.00 0.00 0.00 41 1012.3
20260831200125 36 184 6.4 19.3 0.00 0.00 0.00 40 1012.5
20260831192916 36 123 6.4 20.9 0.00 0.00 0.00 44 1012.9
20260831191918 35 175 6.4 16.1 0.00 0.00 0.00 46 1013.0
20260831190900 35 147 8.0 24.1 0.00 0.00 0.00 47 1013.1
20260831185839 35 182 8.0 17.7 0.00 0.00 0.00 48 1013.3
20260831184805 34 171 4.8 17.7 0.00 0.00 0.00 50 1013.4
20260831182652 34 207 6.4 19.3 0.00 0.00 0.00 51 1013.6
20260831181620 34 97 4.8 14.5 0.00 0.00 0.00 50 1013.6
20260831180617 34 151 4.8 16.1 0.00 0.00 0.00 51 1013.7
20260831175548 34 134 3.2 17.7 0.00 0.00 0.00 52 1013.9
20260831174610 33 235 6.4 17.7 0.00 0.00 0.00 52 1014.0
20260831173541 33 216 4.8 14.5 0.00 0.00 0.00 51 1014.1
20260831172549 33 238 4.8 16.1 0.00 0.00 0.00 53 1014.2
20260831170424 33 180 4.8 16.1 0.00 0.00 0.00 58 1014.4
20260831165407 32 183 6.4 20.9 0.00 0.00 0.00 57 1014.4
20260831164425 32 179 6.4 20.9 0.00 0.00 0.00 58 1014.4
20260831163356 32 202 4.8 14.5 0.00 0.00 0.00 57 1014.4
20260831162356 32 182 4.8 14.5 0.00 0.00 0.00 58 1014.4
20260831161347 31 215 3.2 16.1 0.00 0.00 0.00 64 1014.4
20260831160326 31 192 6.4 19.3 0.00 0.00 0.00 65 1014.3
20260831155333 31 186 4.8 19.3 0.00 0.00 0.00 63 1014.4
20260831154338 31 218 4.8 14.5 0.00 0.00 0.00 65 1014.4
20260831153343 30 186 4.8 16.1 0.00 0.00 0.00 68 1014.2
20260831152335 30 196 6.4 17.7 0.00 0.00 0.00 69 1014.0
20260831151400 30 153 4.8 17.7 0.00 0.00 0.00 71 1014.0
20260831150336 30 164 3.2 17.7 0.00 0.00 0.00 73 1014.0
20260831145352 29 223 6.4 17.7 0.00 0.00 0.00 74 1014.0
20260831144416 28 186 4.8 17.7 0.00 0.00 0.00 77 1013.9
20260831143412 28 151 4.8 17.7 0.00 0.00 0.00 79 1013.8
20260831142345 28 192 4.8 14.5 0.00 0.00 0.00 79 1013.8
20260831141330 27 182 3.2 11.3 0.00 0.00 0.00 82 1013.8
20260831140300 27 232 3.2 11.3 0.00 0.00 0.00 83 1013.5
20260831135226 27 205 3.2 11.3 0.00 0.00 0.00 85 1013.5
20260831134241 26 192 3.2 11.3 0.00 0.00 0.00 87 1013.5
20260831133303 26 198 1.6 9.7 0.00 0.00 0.00 89 1013.4
20260831131054 25 184 1.6 8.0 0.00 0.00 0.00 92 1013.4
20260831130054 25 176 1.6 6.4 0.00 0.00 0.00 92 1013.1
20260831125026 25 194 1.6 8.0 0.00 0.00 0.00 92 1013.1
20260831124029 25 196 3.2 8.0 0.00 0.00 0.00 92 1013.0
20260831123026 25 196 3.2 6.4 0.00 0.00 0.00 91 1013.0
20260831120850 25 188 1.6 6.4 0.00 0.00 0.00 91 1013.0
20260831115856 25 210 1.6 9.7 0.00 0.00 0.00 90 1012.9
20260831114910 25 200 1.6 11.3 0.00 0.00 0.00 90 1012.8
20260831113844 25 174 3.2 11.3 0.00 0.00 0.00 90 1012.9
20260831112821 25 212 3.2 9.7 0.00 0.00 0.00 90 1012.8
20260831111814 25 198 3.2 9.7 0.00 0.00 0.00 89 1012.8
20260831105634 25 213 3.2 16.1 0.00 0.00 0.00 90 1012.6
20260831104656 25 178 3.2 16.1 0.00 0.00 0.00 90 1012.7
20260831103701 25 176 3.2 9.7 0.00 0.00 0.00 90 1012.7
20260831102707 25 190 4.8 12.9 0.00 0.00 0.00 90 1012.6